Location: Unspecified
(44.4377°N, 88.0525°W)
Time: 14:26:10
(UTC-05:00)

Okean 3 - Pass Details

Date: 20 April 2019
Orbit: 576 x 602 km, 82.5° (Epoch: 25 May)

Event Time Altitude Azimuth Distance (km) Brightness Sun altitude
Exits shadow 02:24:43 29° 353° (N) 1,104 5.2 -30.2°
Drops below altitude 10° 02:26:54 10° 2° (N) 1,928 6.8 -30.0°
Sets 02:29:07 0° 6° (N) 2,829 7.9 -29.9°
